Regional Weather Roundup
Issued by NWS

Home | Current Version | Previous Version | Text Only | Print | Product List | Glossary Off
Versions: 1 2 3 4 5 6 7 8 9 10 11 12 13 14 15 16 17 18 19 20 21 22 23 24 25 26 27 28 29 30 31 32 33 34 35 36 37 38 39 40 41 42 43 44 45 46 47 48 49 50

000
ASUS43 KOAX 201602
RWRNE

WEATHER ROUNDUP FOR NEBRASKA
NATIONAL WEATHER SERVICE OMAHA NE
1100 AM CDT SAT SEP 20 2014

NOTES: SATELLITE DATA IS BEING USED TO AUGMENT CLOUD COVER ABOVE
       12000 FEET.
       "FAIR" INDICATES FEW OR NO CLOUDS BELOW 12,000 FEET WITH NO
       SIGNIFICANT WEATHER AND/OR OBSTRUCTIONS TO VISIBILITY.

  * THESE STATIONS DO NOT REPORT WEATHER SUCH AS RAIN...SNOW OR FOG.

NEZ001>004-019>022-054>056-201700-
NEBRASKA PANHANDLE

CITY           SKY/WX    TMP DP  RH WIND       PRES   REMARKS
SCOTTSBLUFF    SUNNY     68  51  54 W6        30.20R
ALLIANCE       SUNNY     70  49  47 NW5       30.17R
CHADRON        SUNNY     73  50  44 W12       30.14R
KIMBALL        SUNNY     68  45  42 N8        30.22R
SIDNEY         SUNNY     71  47  42 N7        30.21R
$$

NEZ057>060-069>072-079>082-201700-
SOUTHWEST NEBRASKA

CITY           SKY/WX    TMP DP  RH WIND       PRES   REMARKS
NORTH PLATTE   SUNNY     75  51  43 NE12      30.08R
IMPERIAL       SUNNY     75  48  38 NE13      30.12R
LEXINGTON      SUNNY     76  55  47 NE15      30.04R
MCCOOK         SUNNY     78  51  38 NE18G26   30.05R
OGALLALA       SUNNY     75  51  42 N7        30.13R
$$

NEZ005>010-023>029-035>040-094-201700-
NORTH CENTRAL NEBRASKA

CITY           SKY/WX    TMP DP  RH WIND       PRES   REMARKS
VALENTINE      SUNNY     75  50  41 NW10      30.06R
AINSWORTH      SUNNY     73  52  47 NW6       30.05R
BROKEN BOW     SUNNY     78  52  40 N9        30.05R
O`NEILL        SUNNY     73  59  62 W7        30.01R
ORD            SUNNY     75  55  49 N7        30.01R
THEDFORD       SUNNY     76  52  42 NW8       30.09R
$$

NEZ041-046>049-061>064-073>077-083>087-201700-
SOUTH CENTRAL NEBRASKA

CITY           SKY/WX    TMP DP  RH WIND       PRES   REMARKS
GRAND ISLAND   SUNNY     76  57  51 NE8       29.99S
AURORA         SUNNY     77  57  49 NE8       29.99R
HASTINGS       SUNNY     77  52  41 NE13G23   29.99R
HEBRON         PTSUNNY   78  62  59 NW3       29.96R
HOLDREGE       SUNNY     75  53  46 NE16      30.01S
KEARNEY *      SUNNY     75  55  50 NE12      30.02R
YORK           SUNNY     75  64  69 NE6       29.97S
$$

NEZ011>018-030>034-042>045-201700-
NORTHEAST NEBRASKA

CITY           SKY/WX    TMP DP  RH WIND       PRES   REMARKS
NORFOLK        SUNNY     76  58  53 VRB5      29.96S
ALBION         MOSUNNY   74  55  50 N5        29.99R
BLAIR          MOSUNNY   77  66  68 SW8       29.93S
COLUMBUS *     SUNNY     75  59  57 CALM      29.97S
FREMONT        MOSUNNY   77  63  61 CALM      29.93S
TEKAMAH        MOSUNNY   77  66  68 NW8       29.92R
WAYNE          MOSUNNY   73  60  64 NW3       29.96R
$$

NEZ050>053-065>068-078-088>093-201700-
SOUTHEAST NEBRASKA

CITY           SKY/WX    TMP DP  RH WIND       PRES   REMARKS
LINCOLN        MOSUNNY   77  66  68 W5        29.97R
OMAHA EPPLEY   MOSUNNY   76  67  73 SW6       29.93S
BEATRICE       PTSUNNY   77  66  68 W6        29.95R
FALLS CITY     CLOUDY    73  68  84 S6        29.95F
NEBRASKA CITY    N/A     66  65  98 SW6       29.95F
PLATTSMOUTH    PTSUNNY   69  66  92 CALM      29.95R
$$

NEZ044-045-051>053-067-201700-
OMAHA AREA

CITY           SKY/WX    TMP DP  RH WIND       PRES   REMARKS
OMAHA EPPLEY   MOSUNNY   76  67  73 SW6       29.93S
BLAIR          MOSUNNY   77  66  68 SW8       29.93S
FREMONT        MOSUNNY   77  63  61 CALM      29.93S
MILLARD        MOSUNNY   76  68  76 SW3       29.94R
OFFUTT AFB     MOSUNNY   72  71  99 SW7       29.94R
PLATTSMOUTH    PTSUNNY   69  66  92 CALM      29.95R
WAHOO          FAIR      77  63  60 SW3       29.94S
$$


USA.gov is the U.S. government's official web portal to all federal, state and local government web resources and services.